Find Starlink 4167

NORAD ID: 53033 Int'l Des: 2022-076 Owner: SPXS Country: US Constellation: starlink operational
LEOCIRCULAR

Live Position

Loading 3D Globe...

About Starlink 4167

Description loading...

Upcoming Passes

Passes for default location (London). Set your location on the main map for personalized predictions.

Altitude History

Loading altitude history...

Two-Line Element Set

1 53033U 22076AZ 26104.46086918 .00000587 00000-0 54947-4 0 9999
2 53033 53.2170 273.5371 0001378 88.1883 271.9267 15.08842373208529
Epoch: Apr 14, 2026 • Age: 9 hours

Current Status

Altitude 558.6 km
Velocity 7.58 km/s
Sub-Earth Point -51.63°S, 16.51°E
Launch Date Jul 7, 2022
Age 3.7 years
Type internet

Technical Details

Classification Payload
Mass 297.00 kg
Dry Mass 275.00 kg
Total Mass 297.00 kg
Length 0.20 m
Diameter 2.80 m
Span 9.00 m
Shape Box + pan
Manufacturer SPXS
Bus Type Starlink
Phase Status In Orbit
Owner/State SPXS/US

Most Searched